GW6367 Weather Reports


time (UTC)temp
C
wind
direction
speed
KPH
gust
KPH
rain 1hr
cm
rain 24hr
cm
rain mn
cm
humidity
%
barometer
mb
20260509102353 20 252 3.2 6.4 0.00 0.00 0.20 95 1009.0
20260509101853 21 220 6.4 8.0 0.00 0.00 0.20 94 1009.0
20260509101353 21 230 6.4 6.4 0.00 0.00 0.20 92 1009.0
20260509100853 21 243 6.4 8.0 0.00 0.00 0.20 92 1009.0
20260509100354 21 247 4.8 6.4 0.00 0.00 0.20 93 1009.0
20260509095853 20 214 6.4 8.0 0.00 0.00 0.20 93 1009.0
20260509095353 20 218 4.8 8.0 0.00 0.00 0.20 93 1009.0
20260509094853 21 240 4.8 6.4 0.00 0.00 0.20 94 1009.0
20260509094353 21 226 4.8 6.4 0.00 0.00 0.20 94 1009.0
20260509093854 21 228 4.8 9.7 0.00 0.00 0.20 93 1009.0
20260509093353 21 217 4.8 9.7 0.00 0.00 0.20 94 1009.0
20260509092853 21 233 6.4 8.0 0.00 0.00 0.20 92 1009.0
20260509092353 21 230 11.3 14.5 0.00 0.00 0.20 92 1009.0
20260509091853 21 243 4.8 14.5 0.00 0.00 0.20 92 1009.0
20260509091353 21 214 4.8 12.9 0.05 0.00 0.20 92 1009.0
20260509090853 21 223 11.3 14.5 0.23 0.00 0.20 92 1009.0
20260509090353 21 210 11.3 11.3 0.79 0.00 0.20 92 1009.0
20260509085853 21 232 6.4 9.7 0.84 0.00 0.18 90 1009.0
20260509085353 22 257 8.0 12.9 0.23 0.00 0.08 86 1009.0
20260509084853 22 218 12.9 14.5 0.00 0.00 0.03 85 1009.0
20260509084353 22 261 6.4 9.7 0.00 0.00 0.03 85 1009.0
20260509083854 22 253 8.0 9.7 0.00 0.00 0.03 84 1009.0
20260509083353 22 235 6.4 17.7 0.00 0.00 0.03 84 1009.0
20260509082853 22 230 9.7 12.9 0.00 0.00 0.03 84 1009.0
20260509082355 22 217 6.4 17.7 0.00 0.00 0.03 84 1008.0
20260509081853 22 206 6.4 14.5 0.00 0.00 0.03 85 1008.0
20260509081353 22 229 9.7 14.5 0.00 0.00 0.03 85 1009.0
20260509080853 22 250 11.3 12.9 0.00 0.00 0.03 86 1009.0
20260509080353 22 250 11.3 20.9 0.00 0.00 0.03 86 1008.0
20260509075853 22 252 8.0 12.9 0.00 0.00 0.03 86 1008.0
20260509075354 22 228 8.0 12.9 0.00 0.00 0.03 86 1008.0
20260509074853 22 299 4.8 14.5 0.00 0.00 0.03 86 1008.0
20260509074353 22 237 9.7 12.9 0.00 0.00 0.03 86 1009.0
20260509073854 22 252 8.0 17.7 0.00 0.00 0.03 86 1008.0
20260509073353 22 249 8.0 12.9 0.00 0.00 0.03 86 1008.0
20260509072853 22 248 12.9 25.7 0.00 0.00 0.03 86 1008.0
20260509072354 22 292 9.7 16.1 0.00 0.00 0.03 86 1008.0
20260509071854 22 222 8.0 16.1 0.00 0.00 0.03 85 1009.0
20260509071353 23 255 3.2 19.3 0.00 0.00 0.03 84 1008.0
20260509070853 23 246 12.9 12.9 0.00 0.00 0.03 82 1008.0
20260509070353 23 245 6.4 9.7 0.00 0.00 0.03 81 1009.0
20260509065853 23 221 6.4 11.3 0.00 0.00 0.03 81 1009.0
20260509065353 24 223 6.4 8.0 0.00 0.00 0.03 80 1009.0
20260509064853 25 221 6.4 14.5 0.00 0.00 0.03 78 1009.0
20260509064354 23 242 9.7 14.5 0.00 0.00 0.03 82 1008.0
20260509063853 22 5 3.2 14.5 0.00 0.00 0.03 83 1009.0
20260509063353 23 239 8.0 11.3 0.00 0.00 0.03 83 1009.0
20260509062854 23 277 8.0 12.9 0.00 0.00 0.03 84 1009.0
20260509062353 23 235 8.0 12.9 0.00 0.00 0.03 84 1009.0
20260509061853 23 279 8.0 17.7 0.00 0.00 0.03 81 1009.0
20260509061353 23 244 9.7 14.5 0.00 0.00 0.03 83 1009.0
20260509060853 23 243 3.2 8.0 0.00 0.00 0.03 83 1009.0
20260509060355 22 241 9.7 16.1 0.00 0.00 0.03 84 1009.0
20260509055853 22 236 4.8 8.0 0.00 0.00 0.03 87 1009.0
20260509055353 22 264 4.8 14.5 0.00 0.00 0.03 86 1009.0
20260509054853 22 228 8.0 19.3 0.00 0.00 0.03 85 1010.0
20260509054353 22 230 6.4 8.0 0.05 0.00 0.03 85 1010.0
20260509053853 22 242 6.4 8.0 0.18 0.00 0.03 85 1010.0
20260509053353 23 249 9.7 12.9 0.13 0.00 0.03 83 1010.0
20260509052853 23 297 8.0 12.9 0.00 0.00 0.00 80 1010.0
20260509052353 24 285 4.8 9.7 0.00 0.00 0.00 77 1010.0
20260509051853 25 263 3.2 14.5 0.00 0.00 0.00 74 1010.0
20260509051353 25 265 3.2 11.3 0.00 0.00 0.00 72 1010.0
20260509050901 25 268 4.8 12.9 0.00 0.00 0.00 72 1010.0
20260509050354 25 240 9.7 16.1 0.00 0.00 0.00 71 1010.0
20260509045853 26 284 8.0 17.7 0.00 0.00 0.00 69 1010.0
20260509045354 26 259 12.9 19.3 0.00 0.00 0.00 69 1010.0
20260509044853 26 247 12.9 14.5 0.00 0.00 0.00 68 1010.0
20260509044353 25 268 11.3 16.1 0.00 0.00 0.00 71 1011.0
20260509043853 26 285 8.0 14.5 0.00 0.00 0.00 69 1011.0
20260509043353 26 254 11.3 16.1 0.00 0.00 0.00 69 1011.0
20260509042853 26 231 12.9 17.7 0.00 0.00 0.00 69 1011.0
20260509042354 25 248 4.8 16.1 0.00 0.00 0.00 72 1011.0
20260509041853 26 242 6.4 14.5 0.00 0.00 0.00 70 1011.0
20260509041353 25 258 6.4 14.5 0.00 0.00 0.00 71 1011.0
20260509040853 25 354 4.8 14.5 0.00 0.00 0.00 72 1011.0
20260509040353 25 247 12.9 16.1 0.00 0.00 0.00 73 1012.0
20260509035853 23 244 4.8 12.9 0.00 0.00 0.00 77 1012.0
20260509035353 23 222 6.4 9.7 0.00 0.00 0.00 79 1012.0
20260509034854 24 241 6.4 20.9 0.00 0.00 0.00 78 1012.0
20260509034353 25 274 4.8 19.3 0.00 0.00 0.00 74 1012.0
20260509033853 26 275 6.4 17.7 0.00 0.00 0.00 72 1012.0
20260509033354 24 238 3.2 12.9 0.00 0.00 0.00 76 1012.0
20260509032853 24 274 6.4 14.5 0.00 0.00 0.00 77 1012.0
20260509032354 25 230 16.1 17.7 0.00 0.00 0.00 76 1012.0
20260509031853 25 342 3.2 9.7 0.00 0.00 0.00 75 1012.0
20260509031353 25 258 6.4 16.1 0.00 0.00 0.00 74 1012.0
20260509030853 25 275 6.4 11.3 0.00 0.00 0.00 74 1012.0
20260509030353 25 223 9.7 11.3 0.00 0.00 0.00 73 1012.0
20260509025855 25 221 6.4 9.7 0.00 0.00 0.00 70 1012.0
20260509025353 26 254 6.4 9.7 0.00 0.00 0.00 69 1012.0
20260509024853 25 260 6.4 14.5 0.00 0.00 0.00 70 1012.0
20260509024354 24 255 3.2 11.3 0.00 0.00 0.00 74 1012.0
20260509023855 25 288 6.4 9.7 0.00 0.00 0.00 73 1013.0
20260509023353 25 278 6.4 9.7 0.00 0.00 0.00 74 1012.0
20260509022853 25 252 9.7 12.9 0.00 0.00 0.00 73 1012.0
20260509022355 25 287 4.8 12.9 0.00 0.00 0.00 71 1012.0
20260509021853 25 230 6.4 14.5 0.00 0.00 0.00 69 1012.0
20260509021353 26 269 4.8 11.3 0.00 0.00 0.00 65 1012.0
20260509020853 27 210 11.3 12.9 0.00 0.00 0.00 62 1012.0
20260509020353 26 210 8.0 11.3 0.00 0.00 0.00 64 1013.0
20260509015854 26 247 8.0 9.7 0.00 0.00 0.00 62 1012.0
20260509015353 26 324 4.8 8.0 0.00 0.00 0.00 63 1012.0
20260509014853 25 228 3.2 8.0 0.00 0.00 0.00 66 1012.0
20260509014353 26 255 6.4 8.0 0.00 0.00 0.00 66 1013.0
20260509013853 25 137 1.6 6.4 0.00 0.00 0.00 69 1013.0
20260509013353 25 350 3.2 11.3 0.00 0.00 0.00 67 1013.0
20260509012854 25 203 6.4 9.7 0.00 0.00 0.00 67 1013.0
20260509012353 25 166 3.2 4.8 0.00 0.00 0.00 68 1013.0
20260509011855 25 151 8.0 12.9 0.00 0.00 0.00 68 1013.0
20260509011353 25 237 3.2 8.0 0.00 0.00 0.00 69 1013.0
20260509010853 23 355 0.0 6.4 0.00 0.00 0.00 71 1013.0
20260509010353 24 224 0.0 8.0 0.00 0.00 0.00 70 1013.0
20260509005853 24 200 4.8 6.4 0.00 0.00 0.00 71 1013.0
20260509005354 23 171 4.8 4.8 0.00 0.00 0.00 72 1013.0
20260509004853 23 233 9.7 9.7 0.00 0.00 0.00 72 1013.0
20260509004353 23 228 3.2 6.4 0.00 0.00 0.00 74 1013.0
20260509003853 23 181 4.8 6.4 0.00 0.00 0.00 75 1013.0
20260509003353 23 348 0.0 6.4 0.00 0.00 0.00 73 1013.0
20260509002853 23 213 4.8 6.4 0.00 0.00 0.00 75 1013.0
20260509002354 22 197 3.2 11.3 0.00 0.00 0.00 77 1013.0
20260509001853 22 146 4.8 9.7 0.00 0.00 0.00 76 1013.0
20260509001353 22 194 4.8 8.0 0.00 0.00 0.00 74 1013.0
20260509000853 23 198 6.4 8.0 0.00 0.00 0.00 74 1013.0
20260509000355 22 222 4.8 4.8 0.00 0.00 0.00 76 1012.0
20260508235853 23 327 4.8 8.0 0.00 0.00 0.00 76 1012.0
20260508235353 22 188 4.8 6.4 0.00 0.00 0.00 80 1012.0
20260508234855 22 250 4.8 4.8 0.00 0.00 0.00 82 1012.0
20260508234353 22 67 0.0 6.4 0.00 0.00 0.00 80 1012.0
20260508233853 22 97 1.6 4.8 0.00 0.00 0.00 82 1012.0
20260508233353 22 148 4.8 6.4 0.00 0.00 0.00 82 1012.0
20260508232853 21 231 1.6 6.4 0.00 0.00 0.00 84 1012.0
20260508232353 21 217 3.2 3.2 0.00 0.00 0.00 84 1012.0
20260508231853 21 345 0.0 4.8 0.00 0.00 0.00 85 1012.0
20260508231353 21 269 0.0 6.4 0.00 0.00 0.00 90 1012.0
20260508230853 21 267 3.2 4.8 0.00 0.00 0.00 90 1012.0
20260508230353 20 352 1.6 4.8 0.00 0.00 0.00 91 1012.0
20260508225853 20 341 3.2 4.8 0.00 0.00 0.00 94 1011.0
20260508225353 20 222 3.2 4.8 0.00 0.00 0.00 94 1012.0
20260508224854 20 157 3.2 4.8 0.00 0.00 0.00 95 1011.0
20260508224355 20 249 1.6 3.2 0.00 0.00 0.00 96 1011.0
20260508223854 20 153 3.2 4.8 0.00 0.00 0.00 96 1011.0
20260508223353 20 184 1.6 4.8 0.00 0.00 0.00 96 1011.0
20260508222853 20 179 0.0 4.8 0.00 0.00 0.00 97 1011.0
20260508222353 20 56 0.0 3.2 0.00 0.00 0.00 97 1011.0
20260508221853 20 57 1.6 4.8 0.00 0.00 0.00 97 1011.0
20260508221353 20 81 1.6 3.2 0.00 0.00 0.00 98 1011.0
20260508220853 20 157 3.2 4.8 0.00 0.00 0.00 98 1010.0
20260508220353 19 307 0.0 4.8 0.00 0.00 0.00 98 1010.0
20260508215853 20 116 1.6 3.2 0.00 0.00 0.00 98 1010.0
20260508215353 20 334 1.6 3.2 0.00 0.00 0.00 98 1010.0
20260508214854 20 233 0.0 4.8 0.00 0.00 0.00 98 1010.0
20260508214353 20 59 1.6 4.8 0.00 0.00 0.00 98 1011.0
20260508213853 20 7 4.8 4.8 0.00 0.00 0.00 99 1010.0
20260508213353 20 314 0.0 4.8 0.00 0.00 0.00 99 1010.0
20260508212853 20 49 0.0 3.2 0.00 0.00 0.00 99 1010.0
20260508212353 20 29 4.8 4.8 0.00 0.00 0.00 99 1010.0
20260508211853 20 50 1.6 4.8 0.00 0.00 0.00 99 1010.0
20260508211353 19 16 1.6 3.2 0.00 0.00 0.00 99 1010.0
20260508210853 19 285 1.6 6.4 0.00 0.00 0.00 99 1010.0
20260508210353 20 5 3.2 6.4 0.00 0.00 0.00 99 1010.0
20260508205854 20 15 3.2 4.8 0.00 0.00 0.00 99 1010.0
20260508205354 20 256 0.0 4.8 0.00 0.00 0.00 99 1010.0
20260508204854 20 128 0.0 4.8 0.00 0.00 0.00 99 1010.0
20260508204354 20 41 0.0 4.8 0.00 0.00 0.00 99 1009.0
20260508203853 20 296 1.6 3.2 0.00 0.00 0.00 99 1009.0
20260508203353 20 271 1.6 6.4 0.00 0.00 0.00 99 1009.0
20260508202853 20 156 3.2 4.8 0.00 0.00 0.00 99 1010.0
20260508202354 20 179 3.2 3.2 0.00 0.00 0.00 99 1010.0
20260508201853 20 199 3.2 3.2 0.00 0.00 0.00 98 1009.0
20260508201353 20 311 1.6 3.2 0.00 0.00 0.00 99 1009.0
20260508200854 20 154 3.2 3.2 0.00 0.00 0.00 98 1009.0
20260508200353 20 130 1.6 3.2 0.00 0.00 0.00 98 1009.0
20260508195854 20 191 1.6 3.2 0.00 0.00 0.00 98 1009.0
20260508195353 20 36 1.6 4.8 0.00 0.00 0.00 98 1009.0
20260508194853 20 255 3.2 3.2 0.00 0.00 0.00 98 1009.0
20260508194353 20 185 3.2 4.8 0.00 0.00 0.00 98 1009.0
20260508193853 20 233 3.2 3.2 0.00 0.00 0.00 98 1009.0
20260508193353 20 234 4.8 4.8 0.00 0.00 0.00 98 1009.0
20260508192854 20 199 3.2 4.8 0.00 0.00 0.00 98 1009.0
20260508192356 20 55 0.0 3.2 0.00 0.00 0.00 98 1009.0
20260508191855 20 246 1.6 3.2 0.00 0.00 0.00 98 1009.0
20260508191355 20 162 1.6 3.2 0.00 0.00 0.00 98 1009.0
20260508190854 19 170 1.6 6.4 0.00 0.00 0.00 98 1009.0
20260508190354 19 234 3.2 4.8 0.00 0.00 0.00 98 1009.0
20260508185853 19 265 3.2 4.8 0.00 0.00 0.00 98 1009.0
20260508185356 19 215 4.8 6.4 0.00 0.00 0.00 98 1009.0
20260508184855 19 197 0.0 4.8 0.00 0.00 0.00 98 1009.0
20260508184353 19 210 1.6 4.8 0.00 0.00 0.00 98 1009.0
20260508183854 19 251 4.8 8.0 0.00 0.00 0.00 98 1009.0
20260508183353 19 228 4.8 4.8 0.00 0.00 0.00 98 1009.0
20260508182854 19 234 1.6 6.4 0.00 0.00 0.00 97 1009.0
20260508182353 19 236 3.2 4.8 0.00 0.00 0.00 98 1009.0
20260508181854 20 202 3.2 4.8 0.00 0.00 0.00 98 1009.0
20260508181353 20 277 1.6 4.8 0.00 0.00 0.00 98 1009.0
20260508180853 20 212 4.8 4.8 0.00 0.00 0.00 98 1009.0
20260508180354 20 162 3.2 4.8 0.00 0.00 0.00 97 1009.0
20260508175854 20 247 0.0 6.4 0.00 0.00 0.00 97 1009.0
20260508175355 19 36 1.6 4.8 0.00 0.00 0.00 97 1009.0
20260508174855 19 165 3.2 6.4 0.00 0.00 0.00 97 1009.0
20260508174356 19 196 3.2 6.4 0.00 0.00 0.00 97 1009.0
20260508173855 19 243 4.8 8.0 0.00 0.00 0.00 97 1009.0
20260508173356 19 212 3.2 4.8 0.00 0.00 0.00 96 1009.0
20260508172853 19 206 1.6 6.4 0.00 0.00 0.00 96 1009.0
20260508172353 19 267 6.4 6.4 0.00 0.00 0.00 96 1009.0
20260508171855 19 266 1.6 4.8 0.00 0.00 0.00 96 1009.0
20260508171355 19 277 3.2 8.0 0.00 0.00 0.00 96 1009.0
20260508170856 19 284 0.0 11.3 0.00 0.00 0.00 96 1009.0
20260508170354 20 162 4.8 6.4 0.00 0.00 0.00 96 1009.0
20260508165854 20 249 6.4 8.0 0.00 0.00 0.00 96 1009.0
20260508165353 20 229 6.4 8.0 0.00 0.00 0.00 96 1009.0
20260508164854 20 264 6.4 8.0 0.00 0.00 0.00 96 1009.0
20260508164353 20 220 3.2 8.0 0.00 0.00 0.00 96 1009.0
20260508163855 20 290 3.2 8.0 0.00 0.00 0.00 96 1009.0
20260508163354 20 335 0.0 6.4 0.00 0.00 0.00 96 1009.0
20260508162855 20 196 6.4 6.4 0.00 0.00 0.00 96 1009.0
20260508162355 20 235 3.2 3.2 0.00 0.00 0.00 96 1009.0
20260508161855 20 98 3.2 4.8 0.00 0.00 0.00 96 1009.0
20260508161354 20 243 3.2 9.7 0.00 0.00 0.00 95 1010.0
20260508160853 20 248 4.8 4.8 0.00 0.00 0.00 95 1010.0
20260508160357 20 237 4.8 6.4 0.00 0.00 0.00 95 1009.0
20260508155854 20 241 6.4 6.4 0.00 0.00 0.00 95 1010.0
20260508155354 20 209 4.8 4.8 0.00 0.00 0.00 94 1010.0
20260508154855 20 213 4.8 4.8 0.00 0.00 0.00 94 1010.0
20260508154354 20 228 3.2 4.8 0.00 0.00 0.00 94 1010.0
20260508153855 20 253 4.8 4.8 0.00 0.00 0.00 94 1010.0
20260508153355 20 213 4.8 4.8 0.00 0.00 0.00 94 1010.0
20260508152853 20 308 0.0 3.2 0.00 0.00 0.00 94 1010.0
20260508152353 20 229 0.0 4.8 0.00 0.00 0.00 93 1010.0
20260508151854 20 245 4.8 6.4 0.00 0.00 0.00 93 1010.0
20260508151353 20 272 4.8 8.0 0.00 0.00 0.00 92 1010.0
20260508150853 21 237 6.4 8.0 0.00 0.00 0.00 91 1010.0
20260508150353 21 221 0.0 4.8 0.00 0.00 0.00 91 1010.0
20260508145853 21 217 3.2 4.8 0.00 0.00 0.00 90 1010.0
20260508145353 21 93 0.0 3.2 0.00 0.00 0.00 90 1010.0
20260508144854 21 219 3.2 4.8 0.00 0.00 0.00 89 1010.0
20260508144354 21 219 3.2 4.8 0.00 0.00 0.00 89 1010.0
20260508143854 21 297 0.0 3.2 0.00 0.00 0.00 90 1010.0
20260508143354 21 280 1.6 4.8 0.00 0.00 0.00 90 1010.0
20260508142853 21 220 4.8 4.8 0.00 0.00 0.00 90 1010.0
20260508142353 21 257 3.2 4.8 0.00 0.00 0.00 89 1010.0
20260508141853 21 217 0.0 3.2 0.00 0.00 0.00 88 1010.0
20260508141353 21 242 1.6 4.8 0.00 0.00 0.00 88 1010.0
20260508140853 21 335 0.0 3.2 0.00 0.00 0.00 89 1010.0
20260508140356 21 241 0.0 3.2 0.00 0.00 0.00 90 1010.0
20260508135854 21 269 0.0 3.2 0.00 0.00 0.00 89 1010.0
20260508135353 21 237 1.6 4.8 0.00 0.00 0.00 89 1010.0
20260508134853 21 254 4.8 6.4 0.00 0.00 0.00 88 1010.0
20260508134353 21 282 1.6 3.2 0.00 0.00 0.00 87 1010.0
20260508133853 21 278 3.2 4.8 0.00 0.00 0.00 88 1010.0
20260508133354 21 255 4.8 4.8 0.00 0.00 0.00 88 1010.0
20260508132854 21 277 3.2 6.4 0.00 0.00 0.00 88 1010.0
20260508132355 21 260 3.2 6.4 0.00 0.00 0.00 88 1010.0
20260508131854 21 252 4.8 4.8 0.00 0.00 0.00 88 1010.0
20260508131353 22 240 4.8 6.4 0.00 0.00 0.00 87 1010.0
20260508130853 22 248 4.8 6.4 0.00 0.00 0.00 85 1010.0
20260508130353 22 225 3.2 4.8 0.00 0.00 0.00 86 1010.0
20260508125853 22 257 3.2 8.0 0.00 0.00 0.00 86 1009.0
20260508125353 22 238 1.6 4.8 0.00 0.00 0.00 86 1009.0
20260508124854 22 238 1.6 4.8 0.00 0.00 0.00 86 1009.0
20260508124353 22 257 1.6 4.8 0.00 0.00 0.00 85 1009.0
20260508123856 22 223 1.6 4.8 0.00 0.00 0.00 84 1009.0
20260508123354 22 203 3.2 6.4 0.00 0.00 0.00 83 1009.0
20260508122854 22 224 4.8 4.8 0.00 0.00 0.00 82 1009.0
20260508122353 22 197 4.8 8.0 0.00 0.00 0.00 83 1009.0
20260508121853 22 304 3.2 4.8 0.00 0.00 0.00 84 1009.0
20260508121353 22 258 0.0 6.4 0.00 0.00 0.00 84 1009.0
20260508120854 22 258 6.4 8.0 0.00 0.00 0.00 85 1009.0
20260508120354 22 268 1.6 3.2 0.00 0.00 0.00 85 1009.0
20260508115853 22 236 4.8 4.8 0.00 0.00 0.00 84 1009.0
20260508115354 22 247 3.2 4.8 0.00 0.00 0.00 83 1008.0
20260508114854 22 237 4.8 8.0 0.00 0.00 0.00 83 1008.0
20260508114353 22 250 3.2 6.4 0.00 0.00 0.00 84 1008.0
20260508113856 22 231 4.8 4.8 0.00 0.00 0.00 83 1008.0
20260508113353 23 247 4.8 6.4 0.00 0.00 0.00 81 1008.0
20260508112854 23 241 4.8 4.8 0.00 0.00 0.00 81 1008.0
20260508112353 23 237 3.2 3.2 0.00 0.00 0.00 81 1008.0
20260508111853 23 224 3.2 4.8 0.00 0.00 0.00 81 1008.0
20260508111353 23 291 3.2 6.4 0.00 0.00 0.00 80 1008.0
20260508110853 23 203 4.8 6.4 0.00 0.00 0.00 80 1008.0
20260508110354 23 294 3.2 4.8 0.00 0.00 0.00 78 1008.0
20260508105853 23 225 1.6 3.2 0.00 0.00 0.00 78 1008.0
20260508105353 23 229 0.0 4.8 0.00 0.00 0.00 79 1008.0
20260508104855 23 220 4.8 6.4 0.00 0.00 0.00 79 1008.0
20260508104354 23 245 6.4 8.0 0.00 0.00 0.00 79 1008.0
20260508103853 23 237 4.8 8.0 0.00 0.00 0.00 78 1008.0
20260508103356 23 227 8.0 8.0 0.00 0.00 0.00 77 1008.0
20260508102853 23 227 4.8 8.0 0.00 0.00 0.00 76 1008.0